Regional Weather Roundup
Issued by NWS

Home | Current Version | Previous Version | Text Only | Print | Product List | Glossary On
Versions: 1 2 3 4 5 6 7 8 9 10 11 12 13 14 15 16 17 18 19 20 21 22 23 24 25 26 27 28 29 30 31 32 33 34 35 36 37 38 39 40 41 42 43 44 45 46 47 48 49 50
384
ASUS44 KBMX 040410
RWRAL

ALABAMA REGIONAL WEATHER ROUNDUP
NATIONAL WEATHER SERVICE BIRMINGHAM AL
1100 PM CDT TUE MAY 03 2016

NOTE: "FAIR" INDICATES FEW OR NO CLOUDS BELOW 12,000 FEET
WITH NO SIGNIFICANT WEATHER AND/OR OBSTRUCTIONS TO VISIBILITY.

THE REMARK "TC" DENOTES TEMPERATURE IN DEGREES CELSIUS.

ALZ001>011-014-016>018-020-040500-
NORTH ALABAMA

CITY           SKY/WX    TMP DP  RH WIND       PRES   REMARKS
MUSCLE SHOALS  PTCLDY    56  49  77 W3        29.96S
HUNTSVILLE     CLOUDY    60  50  69 NW7       29.93S
DECATUR        MOCLDY    58  50  75 NW7       29.94S
HALEYVILLE     FAIR      53  49  86 N3        29.97S
GADSDEN        PTCLDY    60  51  72 CALM      29.90F
$$

ALZ012-013-022-023-030>036-040>044-040500-
WEST CENTRAL ALABAMA

CITY           SKY/WX    TMP DP  RH WIND       PRES   REMARKS
TUSCALOOSA     CLEAR     61  52  72 NW6       29.93S
$$

ALZ015-024>027-033>036-040>044-040500-
CENTRAL ALABAMA

CITY           SKY/WX    TMP DP  RH WIND       PRES   REMARKS
BIRMINGHAM     PTCLDY    60  51  72 N7        29.93S
MONTGOMERY     MOCLDY    64  58  80 NW6       29.89S
SHELBY CO ARPT CLEAR     61  53  75 NW7       29.91S
MAXWELL AFB    PTCLDY    65  59  80 NW6       29.88S
GREENVILLE     FAIR      65  60  84 CALM      29.89S
$$

ALZ019-021-028-029-037-038-045>048-040500-
EAST CENTRAL ALABAMA

CITY           SKY/WX    TMP DP  RH WIND       PRES   REMARKS
ANNISTON       CLOUDY    64  49  57 W6        29.89S
ALEXANDER CITY CLEAR     62  60  94 CALM      29.89F
AUBURN         CLEAR     63  58  83 NW7       29.89S
$$

ALZ051>064-040500-
SOUTHWEST ALABAMA

CITY           SKY/WX    TMP DP  RH WIND       PRES   REMARKS
MOBILE         MOCLDY    63  63 100 CALM      29.92F
BROOKLEY FIELD CLOUDY    69  64  84 NW6       29.93S
EVERGREEN      MOCLDY    63  61  93 CALM      29.90F
$$

ALZ049-050-065>069-040500-
SOUTHEAST ALABAMA

CITY           SKY/WX    TMP DP  RH WIND       PRES   REMARKS
DOTHAN         CLOUDY    70  63  78 NW7       29.90F
OZARK          CLOUDY    69  64  84 NW5       29.87F
TROY           PTCLDY    66  62  87 NW6       29.89S
EUFAULA        CLOUDY    70  63  78 W3        29.86F
$$




USA.gov is the U.S. government's official web portal to all federal, state and local government web resources and services.